Regional Weather Roundup
Issued by NWS Wakefield, VA

Home | Current Version | Previous Version | Text Only | Print | Product List | Glossary Off
Versions: 1 2 3 4 5 6 7 8 9 10 11 12 13 14 15 16 17 18 19 20 21 22 23 24 25 26 27 28 29 30 31 32 33 34 35 36 37 38 39 40 41 42 43 44 45 46 47 48 49 50

000
ASUS41 KAKQ 261015
RWRAKQ

REGIONAL WEATHER ROUNDUP
NATIONAL WEATHER SERVICE WAKEFIELD VA
600 AM EDT WED APR 26 2017

Note: "fair" indicates few or no clouds below 12,000 feet with no
significant weather and/or obstructions to visibility. * = Denotes
station may not report precipitation (e.g., rain,snow,etc.),
thunder or fog.

VAZ042-051-052>054-056-261100-
NORTHERN VIRGINIA

CITY           SKY/WX    TMP DP  RH WIND       PRES   REMARKS
WASH NATIONAL  CLOUDY    58  57  97 NW8       29.72R
DULLES         DRIZZLE   56  54  93 N8        29.72S FOG
FORT BELVOIR   CLOUDY    58  55  91 NW5       29.71S
QUANTICO       CLOUDY    58  57  97 N9        29.72R
FREDERICKSBRG* CLOUDY    58  58 100 N5        29.71S
STAFFORD*      CLOUDY    56  56 100 N6        29.76R FOG
WARRENTON      CLOUDY    58  54  86 N6        29.72S
CULPEPER*      CLOUDY    57  56  96 N6        29.74R
MANASSAS*        N/A     57  56  96 N8        29.73R FOG
LEESBURG*      CLOUDY    55  55 100 N7        29.74S FOG
WINCHESTER     CLOUDY    54  52  94 NW3       29.75R FOG
FRONT ROYAL*   CLOUDY    54  54 100 CALM      29.75R
LURAY*         CLOUDY    52  52 100 CALM      29.76R FOG
$$

VAZ048-049-060>072-079>083-261100-
CENTRAL AND SOUTH CENTRAL VIRGINIA

CITY           SKY/WX    TMP DP  RH WIND       PRES   REMARKS
RICHMOND       DRZL/FOG  58  58 100 NW5       29.72R VSB 3/4
CHESTERFIELD*  CLOUDY    57  43  58 NW6       29.74R
PETERSBURG*    LGT RAIN  57  56  94 NW6       29.73R
HANOVER        CLOUDY    58  55  90 NW3       29.73R FOG
TAPPAHANNOCK*  CLOUDY    58  58 100 W3        29.71R FOG
QUINTON*       CLOUDY    57  57 100 NW3       29.71R FOG
CHARLOTTSVILLE CLEAR     53  52  96 SW3       29.72S
GORDONSVILLE*  PTSUNNY   53  53 100 CALM      29.72S
ORANGE*        CLOUDY    54  52  94 CALM      29.73R
LOUISA*        CLOUDY    61  59  94 CALM      29.72R
BUMPASS*       CLOUDY    56  56 100 CALM      29.72S
FARMVILLE*     CLEAR     55  55 100 CALM      29.73S
CREWE*         FAIR      55  55 100 CALM      29.74R
FORT PICKETT*  CLOUDY   N/A N/A N/A NW3       29.73R
CHASE CITY*    FAIR      53  51  95 CALM      29.76R
CLARKSVILLE*   PTSUNNY   52  52 100 CALM      29.76R VSB 1/2
SOUTH HILL*    CLOUDY    57  57  97 CALM      29.80R
LAWRENCEVILLE* CLOUDY    57  56  97 CALM      29.73R
EMPORIA*       CLOUDY    57  55  94 W3        29.75R
$$

VAZ088>098-261100-
SOUTHEAST VIRGINIA

CITY           SKY/WX    TMP DP  RH WIND       PRES   REMARKS
NORFOLK        CLOUDY    61  59  93 W7        29.69R
VIRGINIA BEACH CLOUDY    60  58  92 NW6       29.68R
NORFOLK NAVAL  CLOUDY    61  58  90 W12       29.71R
WEST POINT*    CLOUDY    58  57  97 NW3       29.72R
SALUDA*        CLOUDY    58  58 100 NW7       29.69S
NEWPORT NEWS   CLOUDY    59  57  93 NW9       29.70R
LANGLEY AFB    CLOUDY    60  60 100 NW9       29.70R
FORT EUSTIS    CLOUDY    59  57  94 NW9       29.69R
WILLIAMSBURG*  CLOUDY    61  61 100 CALM      29.72R
HR EXEC AP*    CLOUDY    61  55  82 NW6       29.70R
FRANKLIN*      CLOUDY    59  57  94 W8        29.72S
US460-WAKEFLD  LGT RAIN  59  59 100 CALM      29.72R FOG
$$

VAZ020-022-025-037-045-261100-
WEST CENTRAL AND SOUTHWEST VIRGINIA

CITY           SKY/WX    TMP DP  RH WIND       PRES   REMARKS
STAUNTON*      FOG       46  46 100 CALM      29.79R VSB 1
WAYNESBORO*    SUNNY     51  51 100 CALM      29.77R
HOT SPRINGS VA PTCLDY    50  48  93 W9        29.80S
LYNCHBURG      MOCLDY    52  51  97 CALM      29.77R
DANVILLE       CLOUDY    54  54 100 CALM      29.77R
SOUTH BOSTON*  CLOUDY    55  53  95 CALM      29.76R
MARTINSVILLE   CLOUDY    53  53  98 CALM      29.80S
ROANOKE        CLEAR     53  52  96 CALM      29.79R
BLACKSBURG     FOG       56  55  96 CALM      29.82R VSB 1/2
DUBLIN*        FOG       53  50  91 CALM      29.81R VSB 1/4
MARION*        FOG       53  52  95 CALM      29.83R VSB<1/4
HILLSVILLE*    FOG       54  54 100 CALM      29.80R VSB 1/4
RICHLANDS*     FAIR      55  32  42 CALM      29.80S
WISE*            N/A     52  52 100 SW7       29.82R
ABINGDON*      FOG       50  50 100 CALM      29.80R VSB 1/2
$$

MDZ021>025-VAZ099-100-261100-
SOUTHERN MARYLAND AND THE DELMARVA PENINSULA

CITY           SKY/WX    TMP DP  RH WIND       PRES   REMARKS
PATUXENT RIVER CLOUDY    57  57 100 NW10      29.68R
BAY BRIDGE APT CLOUDY    57  55  94 NW8       29.69R
LEONARDTOWN    CLOUDY    55  54  94 NW6       29.71R
DOVER          CLOUDY    59  59 100 N10       29.65R FOG
GEORGETOWN     CLOUDY    59  57  93 N7        29.65R FOG
EASTON         DRIZZLE   57  55  94 N6        29.71R
CAMBRIDGE      CLOUDY    57  55  94 NW8G14    29.67S FOG
SALISBURY      FOG       57  57 100 NW7       29.65R VSB 1/4
OCEAN CITY     FOG       54  54 100 CALM      29.64S VSB 3/4
WALLOPS ISLAND LGT RAIN  58  58 100 NW9       29.65R FOG
ACCOMACK*      CLOUDY    59  54  84 NW10G16   29.66R HAZE
$$

NCZ012>017-030>032-261100-
NORTH CENTRAL AND EASTERN NORTH CAROLINA

CITY           SKY/WX    TMP DP  RH WIND       PRES   REMARKS
ROANOKE RAPIDS CLOUDY    59  57  94 CALM      29.74R
RALEIGH        MOCLDY    57  55  93 CALM      29.78R
ELIZABETH CITY CLOUDY    62  62 100 W9        29.70R
AHOSKIE*         N/A     59  58  95 CALM      29.73S
EDENTON*       CLOUDY    64  61  91 NW5       29.72R
CURRITUCK*     CLOUDY    62  62 100 W8        29.71R FOG
KILL DEVIL HLS CLOUDY    64  64 100 CALM      29.70R
MANTEO         CLOUDY    63  62  96 NW5       29.71R
CAPE HATTERAS  CLOUDY    66  61  84 W8        29.72R
TARBORO*       NOT AVBL
GOLDSBORO      CLOUDY    62  62 100 W6        29.74R
WASHINGTON     CLOUDY    61  60  94 NW5       29.73R
GREENVILLE     CLOUDY    61  61 100 NW3       29.77R
NEW BERN       CLOUDY    61  61 100 W6        29.76R
WILMINGTON     CLOUDY    62  59  90 W9        29.77S
$$

VAZ048-261100-
ELSEWHERE

CITY           SKY/WX    TMP DP  RH WIND       PRES   REMARKS
HARRISBURG PA  LGT RAIN  55  55 100 NW5       29.73S FOG
BALTIMORE      CLOUDY    56  56 100 N7        29.70S
ANNAPOLIS      CLOUDY    59  32  36 NW9       29.69R
ANDREWS AFB    DRIZZLE   57  55  94 N10       29.70R
PHILADELPHIA   CLOUDY    56  55  97 NE13G22   29.70S
HENDERSON NC   MOCLDY    52  52  97 CALM      29.76R FOG
GREENSBORO     CLOUDY    57  56  96 CALM      29.77R
ROCKY MOUNT    CLOUDY    60  58  92 NW7       29.75R
$$

VAZ100-261100-
MARINE

STATION/POSITION TIME  TEMP    WIND        PRES    WAVE   SWELL
                       AIR SEA DIR/SP/G            HT/PER HT/PER
                 (UTC) (F)     (DEG/KT/KT) (MB)    (FT/S) (FT/S)
CAPE MAY NJ      0948   56 55   60/  4/  7 1004.1R
LEWES DE         0942   56 54   80/  8/  9 1003.9R
15NM E FENWICK I 0950   54 51  120/  4/  6 1004.2R   9/11   8/11
OCEAN-CITY-INLET 0942   54 55  310/  2/  3 1004.1R
WACHAPREAGUE VA  0948   58 60  270/  2/  7 1003.9R
THOMAS POINT MD  1000   57 56  330/ 10/ 10   N/A
GOOSES REEF MD   1000   57 53  340/ 12/ 14 1006.1    2/ 2
COVE POINT MD    0948   57     350/ 16/ 18 1005.7R
SOLOMONS ISLAND  0942   57 60  330/  7/ 11   N/A
BISHOPS HEAD MD  0948   57 60  330/  7/ 10 1004.9R
PINEY POINT MD   0948          360/ 10/ 11   N/A
POTOMAC MD       1000   58 60  330/ 10/ 12 1004.4    1/ 3
CAMBRIDGE MD     0942   57 62                N/A
LEWISETTA VA     0948   58 60  340/  6/ 10 1005.1R
RAPPAHANNOCK LGT 0948          310/ 15/ 17 1005.4R
STINGRAY PT      0950   58     330/ 10/ 12 1003.4F
YORK RVR RNG VA  0948   59     310/ 11/ 12 1004.9R
YORKTOWN VA      0948   59 63  290/ 10/ 12 1005.4R
JAMESTOWN VA     1000   59 67  300/ 12/ 14   N/A     0
DOMINION TERM VA 0948   60     300/ 15/ 18 1005.5R
KIPTOPEKE VA     0948      60  330/ 12/ 13   N/A
CHES BAY BRIDGE  0948   60 61  320/ 12/ 15 1005.2R
CAPE HENRY VA    0948   60     290/  9/ 12   N/A
WILLOUBY STN VA  0948   60     300/ 13/ 14 1006.4R
S CRANEY ISL VA  0948   60     280/  6/ 12 1005.4R
CAPE HENRY BUOY  0942      56                N/A     5/ 9   2/11
1ST LANDING BUOY 1000   60 60              1005.5    3/ 4
CAPE CHARLES BUO 0951      56                N/A     5/ 9   2/11
64NM E OF VA BCH 0950   57 54  250/  6/  8 1005.4R   7/ 9   7/ 9
DUCK PIER NC     0948   64 59  290/  7/  8 1005.1R
44100 DUCK FRF   0905      57                N/A     6/10   2/11
44056 DUCK FRF   0930      59                N/A     5/ 9   2/11
OREGON INLET NC  0942   63 63  270/  7/  9 1005.7R
HATTERAS NC      0948   66 68  280/ 12/ 15 1006.0R
DIAMOND SHLS NC  0950   68 77  270/ 12/ 14 1006.1R   7/ 9   7/ 9
CAPE LOOKOUT NC  1000   63     270/ 10/ 12 1007.0R
$$



USA.gov is the U.S. government's official web portal to all federal, state and local government web resources and services.